| time (UTC) | temp C | wind direction | speed KPH | gust KPH | rain 1hr cm | rain 24hr cm | rain mn cm | humidity % | barometer mb |
| 20260507170016 | 8 | 284 | 6.4 | 0.0 | 0.00 | 0.00 | 0.05 | 50 | 1010.7 |
| 20260507164510 | 8 | 290 | 6.4 | 0.0 | 0.00 | 0.00 | 0.05 | 50 | 1010.7 |
| 20260507163010 | 8 | 257 | 4.8 | 0.0 | 0.00 | 0.00 | 0.05 | 50 | 1010.9 |
| 20260507161503 | 8 | 287 | 6.4 | 0.0 | 0.00 | 0.00 | 0.05 | 51 | 1011.0 |
| 20260507160100 | 8 | 234 | 6.4 | 0.0 | 0.00 | 0.00 | 0.05 | 52 | 1011.0 |
| 20260507154559 | 8 | 24 | 4.8 | 0.0 | 0.00 | 0.00 | 0.05 | 52 | 1011.1 |
| 20260507153051 | 7 | 234 | 6.4 | 0.0 | 0.00 | 0.00 | 0.05 | 54 | 1011.7 |
| 20260507151547 | 7 | 286 | 6.4 | 0.0 | 0.00 | 0.00 | 0.05 | 55 | 1011.6 |
| 20260507150044 | 7 | 290 | 4.8 | 0.0 | 0.00 | 0.00 | 0.05 | 54 | 1011.5 |
| 20260507144539 | 7 | 323 | 11.3 | 0.0 | 0.00 | 0.00 | 0.05 | 54 | 1011.6 |
| 20260507143037 | 6 | 304 | 9.7 | 0.0 | 0.00 | 0.00 | 0.03 | 56 | 1011.8 |
| 20260507141530 | 6 | 236 | 9.7 | 0.0 | 0.00 | 0.00 | 0.03 | 57 | 1011.5 |
| 20260507140032 | 6 | 284 | 8.0 | 0.0 | 0.00 | 0.00 | 0.03 | 57 | 1011.5 |
| 20260507134528 | 6 | 309 | 6.4 | 0.0 | 0.00 | 0.00 | 0.03 | 57 | 1011.7 |
| 20260507133025 | 5 | 274 | 6.4 | 0.0 | 0.00 | 0.00 | 0.03 | 58 | 1011.5 |
| 20260507131523 | 5 | 287 | 6.4 | 0.0 | 0.00 | 0.00 | 0.03 | 59 | 1011.5 |
| 20260507130014 | 5 | 285 | 6.4 | 0.0 | 0.00 | 0.00 | 0.03 | 59 | 1011.7 |
| 20260507124511 | 4 | 269 | 6.4 | 0.0 | 0.00 | 0.00 | 0.03 | 59 | 1011.5 |
| 20260507123008 | 4 | 280 | 1.6 | 0.0 | 0.00 | 0.00 | 0.03 | 59 | 1011.5 |
| 20260507121501 | 3 | 244 | 4.8 | 0.0 | 0.00 | 0.00 | 0.03 | 59 | 1011.6 |
| 20260507120103 | 3 | 229 | 4.8 | 0.0 | 0.00 | 0.00 | 0.03 | 59 | 1011.6 |
| 20260507114634 | 3 | 271 | 1.6 | 0.0 | 0.00 | 0.00 | 0.03 | 56 | 1011.4 |
| 20260507113048 | 3 | 263 | 1.6 | 0.0 | 0.00 | 0.00 | 0.03 | 51 | 1011.6 |
| 20260507111546 | 2 | 259 | 1.6 | 0.0 | 0.00 | 0.00 | 0.03 | 44 | 1011.2 |
| 20260507110041 | 2 | 259 | 1.6 | 0.0 | 0.00 | 0.00 | 0.03 | 36 | 1011.2 |
| 20260507104537 | 1 | 261 | 1.6 | 0.0 | 0.00 | 0.00 | 0.03 | 30 | 1011.1 |
| 20260507103033 | 1 | 265 | 0.0 | 0.0 | 0.00 | 0.00 | 0.03 | 28 | 1011.1 |
| 20260507101529 | 1 | 269 | 0.0 | 0.0 | 0.00 | 0.00 | 0.03 | 24 | 1010.8 |
| 20260507100024 | 2 | 269 | 0.0 | 0.0 | 0.00 | 0.00 | 0.03 | 21 | 1010.6 |
| 20260507094521 | 2 | 270 | 1.6 | 0.0 | 0.00 | 0.00 | 0.03 | 18 | 1010.8 |
| 20260507093016 | 2 | 270 | 0.0 | 0.0 | 0.00 | 0.00 | 0.03 | 18 | 1010.8 |
| 20260507091512 | 2 | 270 | 1.6 | 0.0 | 0.00 | 0.00 | 0.03 | 12 | 1010.5 |
| 20260507090020 | 3 | 270 | 1.6 | 0.0 | 0.00 | 0.00 | 0.03 | 100 | 1010.5 |
| 20260507084504 | 3 | 270 | 1.6 | 0.0 | 0.00 | 0.00 | 0.03 | 100 | 1010.8 |
| 20260507083001 | 3 | 271 | 3.2 | 0.0 | 0.00 | 0.00 | 0.03 | 100 | 1010.4 |
| 20260507081557 | 3 | 268 | 1.6 | 0.0 | 0.00 | 0.00 | 0.03 | 100 | 1010.4 |
| 20260507080118 | 4 | 288 | 3.2 | 0.0 | 0.00 | 0.00 | 0.03 | 100 | 1010.4 |
| 20260507074554 | 4 | 287 | 3.2 | 0.0 | 0.00 | 0.00 | 0.03 | 100 | 1010.5 |
| 20260507073052 | 4 | 258 | 1.6 | 0.0 | 0.00 | 0.00 | 0.03 | 100 | 1010.5 |
| 20260507071543 | 4 | 283 | 4.8 | 0.0 | 0.00 | 0.00 | 0.00 | 100 | 1010.3 |
| 20260507070038 | 5 | 258 | 6.4 | 0.0 | 0.00 | 0.00 | 0.00 | 100 | 1010.0 |
| 20260507064533 | 5 | 254 | 1.6 | 0.0 | 0.00 | 0.00 | 0.00 | 100 | 1010.0 |
| 20260507063029 | 5 | 237 | 3.2 | 0.0 | 0.00 | 0.00 | 0.00 | 100 | 1009.8 |
| 20260507061525 | 4 | 277 | 1.6 | 0.0 | 0.00 | 0.00 | 0.00 | 100 | 1009.7 |
| 20260507060022 | 4 | 277 | 0.0 | 0.0 | 0.00 | 0.00 | 0.00 | 100 | 1009.6 |
| 20260507054521 | 4 | 277 | 0.0 | 0.0 | 0.00 | 0.00 | 0.00 | 100 | 1009.6 |
| 20260507053014 | 4 | 277 | 0.0 | 0.0 | 0.00 | 0.00 | 0.00 | 100 | 1009.8 |
| 20260507051510 | 4 | 277 | 0.0 | 0.0 | 0.00 | 0.00 | 0.00 | 100 | 1010.0 |
| 20260507050006 | 5 | 277 | 0.0 | 0.0 | 0.00 | 0.00 | 0.00 | 100 | 1009.6 |
| 20260507044502 | 5 | 277 | 0.0 | 0.0 | 0.00 | 0.00 | 0.00 | 100 | 1010.0 |
| 20260507043058 | 5 | 277 | 0.0 | 0.0 | 0.00 | 0.00 | 0.00 | 100 | 1009.9 |
| 20260507041555 | 5 | 277 | 0.0 | 0.0 | 0.00 | 0.00 | 0.00 | 100 | 1010.3 |
| 20260507040056 | 5 | 277 | 0.0 | 0.0 | 0.00 | 0.00 | 0.00 | 100 | 1009.7 |
| 20260507034555 | 5 | 277 | 0.0 | 0.0 | 0.00 | 0.00 | 1.63 | 100 | 1010.2 |
| 20260507033049 | 5 | 277 | 0.0 | 0.0 | 0.00 | 0.00 | 1.63 | 100 | 1009.8 |
| 20260507031541 | 5 | 277 | 0.0 | 0.0 | 0.00 | 0.00 | 1.63 | 100 | 1010.1 |
| 20260507030036 | 5 | 277 | 1.6 | 0.0 | 0.00 | 0.00 | 1.63 | 100 | 1010.0 |
| 20260507024532 | 5 | 275 | 0.0 | 0.0 | 0.00 | 0.00 | 1.63 | 100 | 1010.2 |
| 20260507023027 | 5 | 275 | 3.2 | 0.0 | 0.00 | 0.00 | 1.63 | 100 | 1010.0 |
| 20260507021524 | 6 | 268 | 3.2 | 0.0 | 0.00 | 0.00 | 1.63 | 100 | 1010.1 |
| 20260507020021 | 6 | 266 | 4.8 | 0.0 | 0.00 | 0.00 | 1.63 | 100 | 1010.2 |
| 20260507014523 | 6 | 272 | 3.2 | 0.0 | 0.00 | 0.00 | 1.63 | 100 | 1010.2 |
| 20260507013023 | 6 | 271 | 0.0 | 0.0 | 0.00 | 0.00 | 1.63 | 100 | 1009.9 |
| 20260507011511 | 6 | 269 | 0.0 | 0.0 | 0.00 | 0.00 | 1.63 | 100 | 1009.7 |
| 20260507010004 | 6 | 270 | 3.2 | 0.0 | 0.00 | 0.00 | 1.63 | 100 | 1009.6 |
| 20260507004607 | 6 | 275 | 1.6 | 0.0 | 0.00 | 0.00 | 1.63 | 100 | 1009.4 |
| 20260507003055 | 6 | 275 | 3.2 | 0.0 | 0.00 | 0.00 | 1.63 | 100 | 1009.3 |
| 20260507001552 | 6 | 265 | 1.6 | 0.0 | 0.00 | 0.00 | 1.60 | 100 | 1009.0 |
| 20260507000051 | 6 | 265 | 1.6 | 0.0 | 0.00 | 0.00 | 1.60 | 100 | 1009.0 |
| 20260506234548 | 6 | 273 | 4.8 | 0.0 | 0.00 | 0.00 | 1.60 | 100 | 1008.8 |
| 20260506233051 | 7 | 267 | 0.0 | 0.0 | 0.00 | 0.00 | 1.60 | 100 | 1008.6 |
| 20260506231535 | 7 | 268 | 3.2 | 0.0 | 0.00 | 0.00 | 1.60 | 100 | 1008.2 |
| 20260506230040 | 7 | 261 | 1.6 | 0.0 | 0.00 | 0.00 | 1.60 | 100 | 1007.9 |
| 20260506224533 | 7 | 259 | 1.6 | 0.0 | 0.00 | 0.00 | 1.60 | 100 | 1007.9 |
| 20260506223031 | 7 | 244 | 1.6 | 0.0 | 0.00 | 0.00 | 1.60 | 100 | 1008.1 |
| 20260506221521 | 8 | 286 | 1.6 | 0.0 | 0.00 | 0.00 | 1.57 | 100 | 1007.6 |
| 20260506220019 | 8 | 267 | 1.6 | 0.0 | 0.00 | 0.00 | 1.57 | 100 | 1007.1 |
| 20260506214526 | 9 | 236 | 3.2 | 0.0 | 0.00 | 0.00 | 1.52 | 100 | 1006.6 |
| 20260506213016 | 9 | 224 | 3.2 | 0.0 | 0.00 | 0.00 | 1.52 | 100 | 1006.3 |
| 20260506211506 | 10 | 252 | 3.2 | 0.0 | 0.00 | 0.00 | 1.52 | 100 | 1005.7 |
| 20260506210003 | 11 | 308 | 6.4 | 0.0 | 0.00 | 0.00 | 1.52 | 100 | 1005.5 |
| 20260506204557 | 12 | 268 | 9.7 | 0.0 | 0.00 | 0.00 | 1.50 | 100 | 1005.2 |
| 20260506203054 | 13 | 229 | 6.4 | 0.0 | 0.00 | 0.00 | 1.42 | 100 | 1004.4 |
| 20260506201549 | 13 | 205 | 8.0 | 0.0 | 0.00 | 0.00 | 1.42 | 100 | 1004.4 |
| 20260506200047 | 13 | 243 | 3.2 | 0.0 | 0.00 | 0.00 | 1.42 | 100 | 1004.3 |
| 20260506194542 | 13 | 233 | 3.2 | 0.0 | 0.00 | 0.00 | 1.42 | 100 | 1004.5 |
| 20260506193039 | 13 | 236 | 1.6 | 0.0 | 0.00 | 0.00 | 1.42 | 100 | 1004.6 |
| 20260506191533 | 13 | 242 | 8.0 | 0.0 | 0.00 | 0.00 | 1.42 | 100 | 1004.8 |
| 20260506190029 | 13 | 204 | 6.4 | 0.0 | 0.00 | 0.00 | 1.42 | 100 | 1004.7 |
| 20260506184541 | 13 | 209 | 4.8 | 0.0 | 0.00 | 0.00 | 1.42 | 100 | 1005.0 |
| 20260506183030 | 13 | 202 | 4.8 | 0.0 | 0.00 | 0.00 | 1.42 | 100 | 1004.7 |
| 20260506181519 | 13 | 180 | 6.4 | 0.0 | 0.00 | 0.00 | 1.42 | 100 | 1004.9 |
| 20260506180016 | 13 | 198 | 1.6 | 0.0 | 0.00 | 0.00 | 1.40 | 100 | 1005.1 |
| 20260506174510 | 13 | 204 | 3.2 | 0.0 | 0.00 | 0.00 | 1.37 | 100 | 1005.1 |
| 20260506173005 | 13 | 244 | 6.4 | 0.0 | 0.00 | 0.00 | 1.35 | 100 | 1005.2 |
| 20260506171502 | 13 | 239 | 4.8 | 0.0 | 0.00 | 0.00 | 1.27 | 100 | 1005.2 |